Location: Bun Machan
(52.1403°N, 7.3744°W)
Time: 02:27:09
(UTC+00:00)

X-37B - Pass Details

Date: 23 June 2021
Orbit: 383 x 392 km, 45.0° (Epoch: 01 July)

Event Time Altitude Azimuth Distance (km) Brightness Sun altitude
Rises 23:39:57 0° 245° (WSW) 2,254 4.3 -13.6°
Reaches altitude 10° 23:42:17 10° 230° (SW) 1,401 3.1 -13.7°
Enters shadow 23:42:22 10° 229° (SW) 1,375 3.1 -13.7°
